Regional Weather Roundup
Issued by NWS Binghamton, NY

Home | Current Version | Previous Version | Text Only | Print | Product List | Glossary On
Versions: 1 2 3 4 5 6 7 8 9 10 11 12 13 14 15 16 17 18 19 20 21 22 23 24 25 26 27 28 29 30 31 32 33 34 35 36 37 38 39 40 41 42 43 44 45 46 47 48 49 50
000
ASUS41 KBGM 280410
RWRBGM
RWRBGM
BINGHAMTON REGIONAL WEATHER ROUNDUP
NATIONAL WEATHER SERVICE BINGHAMTON NY
1100 PM EST TUE JAN 27 2015

Note: "fair" indicates few or no clouds below 12,000 feet with no
significant weather and/or obstructions to visibility.

* = Station(s) that does not report precipitation, such as rain,
snow, etc, also no thunder or fog.

!NYZ009-015>018-022>025-036-037-044>046-055>057-062-280500
...CENTRAL NEW YORK...

CITY           SKY/WX    TMP DP  RH WIND       PRES   REMARKS
BINGHAMTON     CLOUDY     8  -5  55 NW14      29.87S WCI  -8
CORTLAND       FAIR      10   0  61 NW3       29.97S
DANSVILLE      MOCLDY     0  -4  83 S3        30.08S
ELMIRA         MOCLDY     9   1  70 W8        30.02R WCI  -3
ITHACA         PTCLDY     7  -2  66 N5        29.99R WCI  -2
HAMILTON       CLEAR     10   5  79 NW7       29.92  WCI   0
MONTICELLO     CLOUDY    10   1  67 NW15G26   29.78R WCI  -6
NORWICH        CLEAR      9  -8  47 N9G16     29.93R WCI  -5
ONEONTA        CLEAR      7  -8  51 N7        29.82R WCI  -5
PENN YAN       MOCLDY     9   0  67 W5        30.02S WCI   1
ROME           CLOUDY    10  -5  50 W9        30.00S WCI  -3
SIDNEY         CLEAR     10  -6  48 CALM      29.91S
SYRACUSE       MOCLDY    11  -2  56 NW7       30.03S WCI   0
$$

!PAZ038>040-043-044-047-048-072-280500
...NORTHEAST PENNSYLVANIA...

CITY           SKY/WX    TMP DP  RH WIND       PRES   REMARKS
HAZLETON       CLOUDY    12   5  73 MISG      29.88R
SCRANTON       MOCLDY    13   0  56 N13G24    29.92R WCI  -2
TOWANDA*       PTCLDY    14   3  62 W5        30.01S WCI   6
$$
&&
KEY
WCI = WIND CHILL INDEX
VSB = VISIBILITY
HX  = HEAT INDEX
$$


USA.gov is the U.S. government's official web portal to all federal, state and local government web resources and services.